Location: Middlebury
(44.0153°N, 73.1678°W)
Time: 17:23:11
(UTC-04:00)

UWE-3 - Pass Details

Date: 30 June 2024
Orbit: 566 x 652 km, 97.8° (Epoch: 21 July)

Event Time Altitude Azimuth Distance (km) Brightness Sun altitude
Rises 03:59:42 0° 5° (N) 2,837 ? -10.8°
Reaches altitude 10° 04:01:59 10° 358° (N) 1,918 ? -10.6°
Maximum altitude 04:05:51 40° 289° (WNW) 865 ? -10.1°
Enters shadow 04:09:07 13° 223° (SW) 1,672 ? -9.7°
